Location: Los Angeles
(34.0542°N, 118.2411°W)
Time: 08:15:05
(UTC-07:00)

Daily predictions for brighter satellites

Satellite Brightness Start Highest point End
(mag) Time Altitude Azimuth Time Altitude Azimuth Time Altitude Azimuth
Cosmos 2346 Rocket 4.4 18:53:35 10° N 18:59:40 81° E 19:05:41 10° S
Cosmos 1441 Rocket 4.1 18:56:10 10° NNW 18:59:49 53° W 19:03:28 10° S
Meteor 1-28 Rocket 3.8 18:56:29 10° NNE 18:59:52 33° E 19:03:14 10° SSE
COSMO-SKYMED 1 2.6 18:55:51 10° NNE 19:00:13 89° ESE 19:04:33 10° SSW
Milstar 3 4.3 18:53:02 10° WSW 19:01:42 67° S 19:18:32 10° E
Helios 1B rocket 3.7 18:59:33 10° NE 19:02:38 20° E 19:05:42 10° SE
USA 215 3.6 18:58:38 10° NE 19:04:51 45° SE 19:11:02 10° SSW
Cosmos 1805 4.0 19:01:44 10° SSE 19:05:12 31° E 19:08:41 10° NNE
Aureole 2 Rocket 4.2 19:01:07 10° SW 19:05:21 48° WNW 19:09:32 10° N
GPS 2-04 Rocket1 2.5 19:04:13 10° WSW 19:07:37 63° SSE 19:11:08 10° E
Cosmos 1624 Rocket 4.2 19:03:16 10° NNW 19:08:29 78° WSW 19:13:39 10° S
Cosmos 2278 Rocket 3.6 19:03:30 10° NW 19:08:50 43° WSW 19:14:07 10° S
IDEFIX/ARIANE 42P 3.7 19:04:32 10° S 19:09:36 51° W 19:14:42 10° NNW
Cosmos 1072 Rocket 4.4 19:05:08 10° S 19:11:12 74° E 19:17:18 10° N
Cosmos 1953 2.7 19:09:21 10° SSE 19:13:05 40° E 19:16:49 10° NNE
SAR-Lupe-1 4.3 19:13:20 10° SSE 19:16:45 47° ENE 19:20:11 10° N
Gbstr 26 Del rocket 3.5 19:12:59 10° SSW 19:16:52 41° SE 19:21:30 10° ENE
Cosmos 2297 3.8 19:11:55 10° NNW 19:17:35 81° WSW 19:23:12 10° SSE
Cosmos 1076 Rocket 3.6 19:13:24 10° N 19:17:39 53° E 19:21:54 10° SSE
Meteor 1-29 4.2 19:15:03 10° NE 19:17:48 21° E 19:20:31 10° SSE
Cosmos 1766 Rocket 3.9 19:13:48 10° N 19:17:58 42° E 19:22:03 10° SSE
ATLAS CENTAUR R/B 3.3 19:16:26 10° NW 19:20:01 30° WSW 19:23:21 10° S
Cosmos 1437 4.3 19:17:09 10° NNW 19:20:14 40° W 19:23:19 10° SSW
NOAA 12 4.2 19:16:11 10° SSE 19:21:16 54° ENE 19:26:25 10° N
Cosmos-2242 3.2 19:18:15 10° SSE 19:22:26 48° E 19:26:39 10° NNE
Cosmos 1943 4.1 19:18:25 10° SSE 19:23:00 26° ESE 19:27:35 10° NE
Cosmos 2369 Rocket 3.8 19:21:49 10° NNE 19:25:06 15° NE 19:27:09 13° E
Cosmos 1603 3.7 19:23:23 10° SSW 19:29:05 77° ESE 19:34:51 10° NNE
Cosmos 1470 3.9 19:26:45 10° SE 19:29:49 22° E 19:32:53 10° NE
ATLAS CENTAUR R/B 3.9 19:26:32 10° WSW 19:30:56 59° NW 19:44:16 10° NE
OAO 3 Rocket 3.2 19:26:51 10° W 19:31:36 81° N 19:35:09 18° E
SEDSat Delta rocket 4.2 19:26:05 10° W 19:32:35 71° S 19:37:58 17° ESE
BREEZE-M DEB (TANK) 2.9 19:31:42 10° WNW 19:34:04 50° SW 19:39:48 10° SE
Meteor 1-24 Rocket 4.4 19:29:25 10° NNW 19:34:51 56° W 19:40:04 10° S
Delta 168 4.5 19:31:35 10° SW 19:35:22 30° S 19:39:10 15° ESE
Cosmos 1452 Rocket 3.4 19:32:53 10° NNW 19:38:09 73° ENE 19:43:22 10° SSE
Spot 1 4.3 19:34:49 10° SSE 19:39:29 58° ENE 19:43:54 10° N
Cosmos 1674 3.8 19:37:34 10° NNE 19:40:47 24° ENE 19:41:20 23° E
SJ-6B 3.0 19:38:09 10° S 19:42:06 78° WSW 19:46:11 10° NNW
ASTRO E2 3.3 19:41:19 10° W 19:45:12 46° S 19:47:22 23° SE
ASTEX 1 3.9 19:41:32 10° NNE 19:46:00 35° E 19:50:27 10° SSE
Cosmos 2034 Rocket 4.1 19:40:00 10° S 19:46:15 85° W 19:52:36 10° N
In-Cosmos 22 4.2 19:40:41 10° N 19:46:30 89° E 19:52:13 10° S
Cosmos 1842 Rocket 3.8 19:43:00 10° SSE 19:47:03 41° E 19:51:09 10° NNE
Cosmos 1408 Rocket 3.8 19:45:21 10° NNW 19:49:40 71° W 19:53:56 10° S
Cosmos 1500 Rocket 4.2 19:46:29 10° NNE 19:50:31 33° E 19:52:00 26° ESE
Cosmos 1758 4.3 19:53:02 10° SSW 19:56:58 49° W 20:00:59 10° N
ISS -1.9 19:54:53 10° WSW 19:57:53 35° NW 20:00:05 16° NNE
Cosmos 1420 Rocket 4.0 19:52:57 10° N 19:58:12 60° ENE 20:02:05 18° SSE
ATLAS 5 CENTAUR R/B 4.0 19:55:54 10° WSW 19:59:50 25° NW 20:04:01 10° N
BREEZE-M TANK 3.6 19:53:28 10° WNW 20:00:35 47° SW 20:02:34 20° SSE
ALOS 2.5 19:59:05 26° SE 20:01:16 46° ENE 20:05:44 10° N
Helios 1A 2.8 19:57:33 10° SSE 20:01:45 78° ENE 20:05:58 10° N
FengYun 1-2 T 4.1 19:57:01 10° SSE 20:02:29 68° ENE 20:07:56 10° N
CENTAUR R/B 2.3 19:57:35 10° SSW 20:03:27 76° ESE 20:10:01 10° NNE
Cosmos 1544 3.7 20:00:16 10° SSW 20:03:57 59° W 20:07:39 10° N
Spot 2 Rocket 3.6 20:03:55 10° S 20:08:57 78° WSW 20:14:00 10° NNW
Resurs 1-3 3.5 20:08:50 12° SSE 20:12:50 89° W 20:17:14 10° NNW
Cosmos 1048 Rocket 4.4 20:07:56 10° SSW 20:13:13 66° WNW 20:18:27 10° N
HJ-1C 4.3 20:11:14 10° S 20:14:27 47° W 20:17:44 10° NNW
Resurs 01 Rocket 2.2 20:14:27 10° S 20:18:48 57° W 20:23:11 10° NNW
Cosmos 1743 Rocket 3.7 20:15:23 10° N 20:19:47 71° W 20:23:54 11° S
Meteosat 1 Rocket2 4.0 20:17:50 10° WSW 20:24:25 43° S 20:25:14 40° SSE
CZ-2D R/B 3.9 20:26:23 44° N 20:26:23 44° N 20:29:12 10° N
Cosmos 1174 4.5 20:21:05 10° SW 20:26:07 63° WNW 20:28:41 22° NNE
Cosmos 158 Rocket 3.9 20:26:10 10° SSW 20:31:02 75° WNW 20:35:54 10° NNE
FENGYUN 3A 3.6 20:32:55 28° S 20:35:53 80° WSW 20:41:18 10° NNW
H-2A R/B 3.8 20:38:40 41° NNW 20:38:40 41° NNW 20:41:15 10° NNW
GP-B 4.1 20:42:46 10° N 20:45:35 39° N 20:45:35 39° N
GPS 2-04 Rocket1 4.3 20:43:56 10° W 20:45:48 29° WNW 20:45:48 29° WNW
USA 215 4.2 20:41:38 10° NNE 20:47:46 45° NW 20:53:53 10° WSW
OAO 1 Rocket 4.4 20:44:24 10° W 20:49:28 79° W 20:49:28 79° W
SeaSat 1 3.9 20:54:19 26° SSW 20:54:19 26° SSW 20:56:25 10° SSW
Cosmos 2279 Rocket 4.4 20:54:11 47° NNE 20:54:11 47° NNE 20:58:35 10° NNE
Cosmos 1943 Rocket 3.6 21:00:01 10° N 21:02:42 26° N 21:02:42 26° N
Cosmos 2369 Rocket 2.5 21:03:58 10° NNW 21:09:00 62° WNW 21:09:00 62° WNW
Cosmos 1655 Rocket 4.2 21:05:24 10° N 21:10:29 62° N 21:10:29 62° N
Cosmos 2026 Rocket 4.2 21:10:43 10° N 21:16:08 65° NW 21:16:08 65° NW
